Regional Weather Roundup
Issued by NWS

Home | Current Version | Previous Version | Text Only | Print | Product List | Glossary Off
Versions: 1 2 3 4 5 6 7 8 9 10 11 12 13 14 15 16 17 18 19 20 21 22 23 24 25 26 27 28 29 30 31 32 33 34 35 36 37 38 39 40 41 42 43 44 45 46 47 48 49 50

000
ASUS43 KLMK 161702
RWRKY
KENTUCKY REGIONAL WEATHER ROUNDUP
NATIONAL WEATHER SERVICE LOUISVILLE KY
100 PM EDT WED APR 16 2014

NOTE "FAIR" INDICATES FEW OR NO CLOUDS BELOW 12,000 FEET
WITH NO SIGNIFICANT WEATHER AND/OR OBSTRUCTIONS TO VISIBILITY.

KYZ001>023-026-027-061>063-070>075-161800-
WESTERN AND SOUTH CENTRAL KENTUCKY

CITY           SKY/WX    TMP DP  RH WIND       PRES   REMARKS
PADUCAH        SUNNY     53  26  35 E13G21    30.29F
HENDERSON      SUNNY     45  25  45 E8        30.34F
OWENSBORO      SUNNY     46  23  40 SE9       30.35F
HOPKINSVILLE   MOSUNNY   48  23  37 E10       30.32F
BOWLING GREEN  SUNNY     48  23  37 VRB6      30.35F
GLASGOW        NOT AVBL
$$

KYZ024-025-028>034-038-045-046-053-161800-
NORTH CENTRAL KENTUCKY

CITY           SKY/WX    TMP DP  RH WIND       PRES   REMARKS
LOUISVILLE/SDF PTSUNNY   46  19  34 E10G18    30.37F
LOUISVILLE/LOU SUNNY     47  18  31 E9        30.38F
FORT KNOX      SUNNY     46  20  35 E8        30.34F
$$

KYZ035>037-039>044-047>052-055>060-089>105-161800-
NORTHEAST KENTUCKY

CITY           SKY/WX    TMP DP  RH WIND       PRES   REMARKS
LEXINGTON      SUNNY     45  18  34 E10G21    30.37F
COVINGTON      PTSUNNY   43  16  33 NE12      30.39F
FRANKFORT      SUNNY     45  20  36 SE13G18   30.37F
$$

KYZ054-064>069-076>088-106>120-161800-
SOUTHEAST KENTUCKY

CITY           SKY/WX    TMP DP  RH WIND       PRES   REMARKS
JACKSON        SUNNY     43  16  33 VRB7      30.36F
LONDON         SUNNY     46  18  32 E9        30.34F
SOMERSET       NOT AVBL
MIDDLESBORO    SUNNY     48  18  31 E7        30.34F
MONTICELLO     SUNNY     47  21  35 SE5       30.35F
$$




USA.gov is the U.S. government's official web portal to all federal, state and local government web resources and services.